Find Starlink 34368

NORAD ID: 64311 Int'l Des: 2025-123 Owner: SPXS Country: US Constellation: starlink operational
LEOCIRCULAR

当前视图

正在加载3D地球...

About Starlink 34368

Starlink 34368 (NORAD 64311) is a starlink constellation satellite (v2 mini) launched Jun 8, 2025 by SPXS of US. It operates in LEO, CIRCULAR orbit with a mass of 575.00 kg.

关于 Starlink 34368

正在加载描述...

即将过境

Passes for default location (London). Set your location on the main map for personalized predictions.

高度历史

Loading altitude history...

两行轨道根数

1 64311U 25123W 26195.18540405 .00002421 00000-0 21061-3 0 9990
2 64311 69.9994 235.6149 0003589 264.1706 95.9044 14.98340470 60562
Epoch: Jul 14, 2026 • Age: 4 hours

当前状态

高度 588.5 km
远地点 / 近地点 N/A
速度 7.57 km/s
星下点 -49.71°S, 17.79°E
发射日期 Jun 8, 2025
运行时间 1 year
类型 internet

技术详情

分类 Payload
质量 575.00 kg
干质量 530.00 kg
总质量 575.00 kg
长度 0.30 m
直径 4.10 m
跨度 29.00 m
形状 Box + pan
制造商 SPXS
平台类型 Starlink V2MO
阶段状态 In Orbit
所有者/国家 SPXS/US

Most Searched